La Junta, CO

1:19 PM MDT on April 27, 2017 (GMT -0600)
La Junta Municipal

Weather History for KLHX - February, 2012

Change the Weather History Date:

Wednesday, February 8, 2012

  Actual Average Record
Temperature  
Mean Temperature 26 °F 33 °F  
Max Temperature 35 °F 47 °F 76 °F (1954)
Min Temperature 16 °F 19 °F -9 °F (1989)
Degree Days  
Heating Degree Days 39 32  
Month to date heating degree days 257 261  
Since 1 July heating degree days 3472 3518  
Cooling Degree Days 0 0  
Month to date cooling degree days 0 0  
Year to date cooling degree days 0 0  
Moisture  
Dew Point 20 °F    
Average Humidity 74    
Maximum Humidity 92    
Minimum Humidity 56    
Precipitation  
Precipitation 0.00 in 0.01 in 0.45 in (2009)
Month to date precipitation 0.07  
Year to date precipitation 0.08  
Sea Level Pressure  
Sea Level Pressure 30.26 in    
Wind  
Wind Speed 4 mph (ENE)    
Max Wind Speed 13 mph    
Max Gust Speed 15 mph    
Visibility 9 miles    
Events      
T = Trace of Precipitation, MM = Missing Value Source: NWS Daily Summary

Daily Weather History Graph

Daily Weather History Graph

Search for Another Location

Airport or City:

Trip Planner

Search our weather history database for the weather conditions in past years. The results will help you decide how hot, cold, wet, or windy it might be!

Date:

Astronomy

Feb. 08, 2012 Rise Set
Actual Time 6:52 AM MST 5:24 PM MST
Civil Twilight 6:25 AM MST 5:51 PM MST
Nautical Twilight 5:53 AM MST 6:23 PM MST
Astronomical Twilight 5:23 AM MST 6:53 PM MST
Moon 6:44 PM MST (2/8) 6:58 AM MST (2/8)
Length of Visible Light 11h 26m
Length of Day
10h 32m
Full, 99% of the Moon is Illuminated
Feb 8
Full
Feb 14
Last Quarter
Feb 21
New
Feb 29
First Quarter
Mar 8
Full

Hourly Weather History & Observations

Time (MST) Temp. Windchill Dew Point Humidity Pressure Visibility Wind Dir Wind Speed Gust Speed Precip Events Conditions
12:53 AM 18.0 °F 9.8 °F 14.0 °F 84% 30.41 in 10.0 mi East 5.8 mph - N/A   Clear
1:53 AM 19.0 °F 9.0 °F 15.1 °F 85% 30.40 in 10.0 mi East 8.1 mph - N/A   Clear
2:53 AM 18.0 °F 8.7 °F 14.0 °F 84% 30.38 in 10.0 mi East 6.9 mph - N/A   Clear
3:53 AM 17.1 °F 7.6 °F 14.0 °F 88% 30.36 in 10.0 mi East 6.9 mph - N/A   Clear
4:53 AM 18.0 °F 7.7 °F 14.0 °F 84% 30.36 in 10.0 mi East 8.1 mph - N/A   Clear
5:53 AM 16.0 °F - 12.9 °F 88% 30.37 in 10.0 mi Calm Calm - N/A   Clear
6:53 AM 16.0 °F 10.4 °F 12.9 °F 88% 30.37 in 10.0 mi ENE 3.5 mph - N/A   Clear
7:53 AM 19.0 °F - 16.0 °F 88% 30.37 in 10.0 mi Calm Calm - N/A   Clear
8:03 AM 19.4 °F - 15.8 °F 86% 30.25 in 10.0 mi Calm Calm - N/A   Partly Cloudy
8:53 AM 21.0 °F 16.2 °F 17.1 °F 85% 30.36 in 10.0 mi North 3.5 mph - N/A   Partly Cloudy
9:15 AM 23.0 °F 18.4 °F 17.6 °F 80% 30.24 in 10.0 mi NNW 3.5 mph - N/A   Mostly Cloudy
9:24 AM 21.2 °F - 17.6 °F 86% 30.24 in 10.0 mi Calm Calm - N/A   Scattered Clouds
9:33 AM 24.8 °F 20.5 °F 19.4 °F 80% 30.24 in 10.0 mi NNE 3.5 mph - N/A   Mostly Cloudy
9:53 AM 23.0 °F 18.4 °F 19.0 °F 85% 30.35 in 10.0 mi Variable 3.5 mph - N/A   Mostly Cloudy
10:10 AM 24.8 °F - 19.4 °F 80% 30.23 in 10.0 mi Calm Calm - N/A   Partly Cloudy
10:53 AM 26.1 °F - 19.9 °F 78% 30.32 in 10.0 mi Calm Calm - N/A   Clear
11:53 AM 28.9 °F 22.8 °F 21.0 °F 72% 30.28 in 10.0 mi SSW 5.8 mph - N/A   Clear
12:53 PM 32.0 °F - 21.0 °F 64% 30.24 in 10.0 mi Calm Calm - N/A   Clear
1:53 PM 34.0 °F - 19.9 °F 56% 30.20 in 10.0 mi Calm Calm - N/A   Clear
2:53 PM 35.1 °F - 21.0 °F 57% 30.19 in 10.0 mi Calm Calm - N/A   Clear
3:53 PM 35.1 °F 32.2 °F 21.0 °F 57% 30.19 in 10.0 mi East 3.5 mph - N/A   Clear
4:53 PM 34.0 °F 31.0 °F 21.9 °F 61% 30.18 in 10.0 mi SSE 3.5 mph - N/A   Clear
5:53 PM 32.0 °F 28.7 °F 23.0 °F 69% 30.19 in 10.0 mi SE 3.5 mph - N/A   Clear
6:53 PM 30.9 °F 27.5 °F 25.0 °F 79% 30.21 in 10.0 mi ENE 3.5 mph - N/A   Partly Cloudy
7:53 PM 28.9 °F 23.9 °F 23.0 °F 78% 30.22 in 10.0 mi NNE 4.6 mph - N/A   Partly Cloudy
8:53 PM 28.0 °F 20.0 °F 23.0 °F 81% 30.22 in 10.0 mi North 8.1 mph - N/A   Clear
9:53 PM 27.0 °F 19.5 °F 23.0 °F 85% 30.24 in 10.0 mi NNE 6.9 mph - N/A   Clear
10:22 PM 26.6 °F 19.1 °F 23.0 °F 86% 30.16 in 10.0 mi NNE 6.9 mph - N/A   Scattered Clouds
10:32 PM 26.6 °F 18.2 °F 23.0 °F 86% 30.16 in 10.0 mi NNE 8.1 mph - N/A   Mostly Cloudy
10:53 PM 27.0 °F 17.3 °F 24.1 °F 89% 30.25 in 8.0 mi ENE 10.4 mph - N/A   Overcast
11:15 PM 26.6 °F 17.5 °F 24.8 °F 93% 30.18 in 5.0 mi ENE 9.2 mph - N/A   Overcast
11:46 PM 26.6 °F 16.8 °F 24.8 °F 93% 30.17 in 2.0 mi ENE 10.4 mph - N/A   Overcast
11:53 PM 26.1 °F 16.8 °F 24.1 °F 92% 30.24 in 1.0 mi NE 9.2 mph - N/A   Overcast